www.pogodaiklimat.ru

Погода и климат >> Архив погоды >> Россия >> Нижегородская область >> Дальнее Константиново


ПОГОДА в Дальнем Константиново

  • Прогноз погоды в Дальнем Константиново
  • Монитор погоды в Дальнем Константиново
  • Климат города

АРХИВ ПОГОДЫ в Дальнем Константиново

Время (UTC), дата Ветер
(напр.,м/с)
 
Видим.   Явления Облачность Т
(С)
Тd
(С)
f
(%)
Тe
(С)
Тes
(С)
Комфортность P
(гПа)
Po
(гПа)
Тmin
(С)
Tmax
(С)
R
(мм)
R24
(мм)
S
(см)
06 14.02 штиль 0
{1}
10 км ясно -19.8 -21.7 85 -20 -19 1032.9 1014.5
09 14.02 СВ 1-2
{3}
10 км ясно -12.1 -14.8 80 -14 -11 1034.1 1016.2
12 14.02 В 2-3
{3}
10 км ясно -7.4 -11.8 71 -12 -11 1033.8 1016.2
15 14.02 ЮВ 1-1
{3}
4000 м ясно -9.8 -12.4 81 -12 -12 1034.8 1017.1 -7.4
18 14.02 штиль 0
{2}
4000 м ясно -13.7 -14.3 95 -14 -14 1035.7 1017.6
21 14.02 штиль 0
{2}
4000 м ясно -15.0 -16.3 90 -15 -15 1036.0 1017.9
00 15.02 штиль 0
{1}
4000 м ясно -17.2 -18.4 90 -17 -17 1037.1 1018.7
03 15.02 штиль 0
{1}
4000 м ясно -19.8 -21.7 85 -20 -20 1037.9 1019.4 -19.9 15
06 15.02 штиль 0
{1}
4000 м дымка ясно -17.5 -19.4 85 -18 -16 1039.1 1020.7 -20.6
09 15.02 В 1-2
{2}
10 км ясно -10.1 -14.5 70 -12 -9 1039.4 1021.6
12 15.02 В 3-4
{4}
10 км ясно -8.6 -12.4 74 -14 -13 1039.3 1021.6
15 15.02 В 1-2
{4}
4000 м ясно -12.1 -14.8 80 -14 -14 1039.7 1021.8 -8.7
18 15.02 Ю 2-3
{3}
4000 м ясно -12.9 -14.2 90 -18 -18 1039.2 1021.3
21 15.02 ЮВ 1-2
{4}
4000 м ясно -13.9 -15.9 85 -16 -16 1039.3 1021.2
00 16.02 штиль 0
{3}
4000 м ясно -14.6 -15.9 90 -15 -15 1039.5 1021.4
03 16.02 Ю 2-3
{3}
4000 м 10/0
[As op]
-11.0 -13.0 85 -16 -16 1038.8 1021.0 -14.7
06 16.02 ЮВ 2-3
{4}
10 км 10/0
[As op]
-9.7 -12.3 81 -14 -14 1039.0 1021.2
09 16.02 Ю 2-4
{4}
10 км слабый снег 10/0
[As op]
-5.9 -10.2 72 -10 -9 1038.2 1020.7
12 16.02 Ю 2-5
{5}
10 км в посл. час снег 10/0
[As op]
-3.7 -8.5 69 -8 -7 1037.5 1020.1
15 16.02 Ю 2-4
{5}
4000 м 10/0
[As op]
-3.8 -8.7 69 -8 -8 1037.2 1019.8 -3.4 0.0
18 16.02 Ю 2-3
{4}
4000 м 10/10 1000 м
[Sc]
-5.2 -8.9 75 -9 -9 1036.8 1019.4
21 16.02 Ю 2-3
{4}
4000 м 10/10 600 м
[Sc]
-5.6 -8.6 79 -10 -10 1036.1 1018.6
00 17.02 Ю 2-3
{4}
4000 м 10/10 600 м
[Sc]
-6.0 -9.1 79 -10 -10 1035.7 1018.2
03 17.02 Ю 2-3
{4}
4000 м ясно -7.1 -10.5 77 -11 -11 1034.7 1017.3 -7.1 14
06 17.02 Ю 3-5
{5}
10 км 9/0
[Ac trans]
-7.5 -11.5 73 -13 -13 1034.0 1016.4 -7.6
09 17.02 ЮВ 4-6
{6}
10 км 6/0
[Ac trans]
-6.0 -11.3 66 -12 -11 1032.9 1015.5
12 17.02 ЮВ 4-6
{6}
10 км 9/0
[Ac trans]
-6.3 -9.4 79 -13 -12 1031.7 1014.3
15 17.02 Ю 3-4
{6}
4000 м 9/0
[Ac trans]
-6.6 -8.6 86 -12 -12 1030.7 1013.3 -4.3
18 17.02 Ю 3-5
{7}
4000 м слабый снег 10/0
[As op]
-6.5 -8.5 86 -12 -12 1030.1 1012.7
21 17.02 Ю 3-5
{6}
4000 м {снег} 10/10 1000 м
[Sc]
-5.6 -9.4 75 -11 -11 1029.0 1011.6
00 18.02 Ю 3-4
{6}
4000 м {снег} 10/10 600 м
[Sc]
-6.0 -10.4 71 -11 -11 1028.1 1010.7
03 18.02 Ю 2-4
{6}
4000 м 10/0
[As op]
-7.3 -11.6 71 -12 -12 1027.4 1010.0 -7.4 0.0 14
06 18.02 Ю 3-5
{6}
10 км {снег} 10/0
[As op]
-7.1 -9.6 82 -13 -13 1026.4 1009.0 -7.9
09 18.02 Ю 4-7
{9}
10 км {снег} 10/0
[As trans]
-5.0 -9.1 73 -11 -10 1025.5 1008.3
12 18.02 Ю 5-8
{9}
10 км слабый снег 10/0
[As op]
-4.8 -7.6 81 -12 -12 1024.1 1007.0
15 18.02 ЮВ 3-6
{8}
4000 м {снег} 10/0
[As op]
-5.7 -7.1 90 -11 -11 1022.7 1005.4 -4.7 0.4
18 18.02 ЮВ 2-3
{6}
4000 м {снег} 10/0
[As op]
-7.0 -8.3 90 -11 -11 1021.7 1004.4
21 18.02 Ю 1-2
{5}
4000 м слабый снег 10/0
[As op]
-7.2 -8.1 93 -10 -10 1020.3 1003.0
00 19.02 Ю 1-3
{3}
4000 м слабый снег 10/0
[As op]
-7.5 -8.4 93 -10 -10 1019.5 1002.2
03 19.02 ЮЗ 2-4
{5}
4000 м слабый снег 10/0 1000 м
[As op]
-9.0 -10.1 92 -14 -14 1018.9 1001.6 -9.0 2 15
06 19.02 ЮЗ 2-3
{4}
10 км в посл. час снег 3/0
[Ci fib]
-9.2 -10.8 88 -14 -13 1018.5 1001.2 -10.6
09 19.02 ЮЗ 2-4
{5}
10 км 8/0
[Ac trans]
-6.1 -8.8 81 -10 -9 1018.7 1001.5
12 19.02 ЮЗ 1-2
{5}
10 км слабый снег 10/0
[As op]
-3.7 -7.0 78 -6 -6 1018.0 1000.9
15 19.02 ЮВ 2-3
{4}
4000 м {снег} 10/0
[As op]
-6.2 -7.7 89 -11 -11 1017.9 1000.7 -3.7 0.2
18 19.02 ЮВ 1-1
{3}
4000 м {снег} 10/0
[As op]
-6.5 -7.7 91 -9 -9 1017.5 1000.3
21 19.02 ЮВ 1-1
{2}
4000 м слабый снег 10/0 600 м
[As op]
-6.2 -7.0 94 -9 -9 1016.5 999.3
00 20.02 штиль 0
{1}
4000 м слабый снег 10/0 600 м
[As op]
-6.8 -7.3 96 -8 -8 1016.0 998.8
03 20.02 штиль 0
{1}
4000 м слабый снег 10/0
[As op]
-7.3 -7.8 96 -8 -8 1015.0 997.8 -7.3 1 18
06 20.02 Ю 1-1
{2}
10 км слабый снег 10/0
[As op]
-6.3 -6.7 97 -9 -9 1014.9 997.7 -7.8
09 20.02 З 2-4
{4}
10 км {снег} 10/0
[As op]
-3.9 -6.5 82 -8 -7 1015.0 997.9
12 20.02 З 3-5
{5}
10 км {снег} 8/0
[Ac trans]
-4.7 -8.3 76 -10 -9 1015.2 998.1
15 20.02 СЗ 1-2
{6}
10 км 10/0
[As trans]
-5.9 -8.1 84 -8 -8 1015.4 998.2 -3.1 0.2
18 20.02 Ю 2-3
{5}
4000 м {снег} ясно -8.5 -9.2 95 -13 -13 1015.9 998.6
21 20.02 З 2-3
{4}
4000 м слабый снег 10/0
[As op]
-8.6 -9.7 92 -13 -13 1015.9 998.6
00 21.02 З 2-3
{5}
4000 м {снег} 10/0
[As op]
-9.5 -10.7 91 -14 -14 1016.5 999.0

 

Местоположение метеостанции Дальнее Константиново (Нижегородская область, Россия): широта 55.80 долгота 44.08 высота над уровнем моря 133 м.

В архиве по умолчанию представлена погода в Дальнем Константиново за последнюю неделю. Архивные данные за месяц целиком и за предыдущие месяцы, начиная с января 2011 года, Вы можете получить, выбрав интересующий диапазон дат из раскрывающегося списка и нажав кнопку "Ввод!".

Внимание! Время в таблицах - всемирное. Для получения местного времени необходимо прибавить поправку, которая в Дальнем Константиново равна 3 ч.

Смотрите также архив погоды в соседних городах и на ближайших метеорологических станциях:

Погода в Нижнем Новгороде аэропорт (Нижегородская область, Россия) (51 км)
Погода в Арзамасе (Нижегородская область, Россия) (51 км)
Погода в Нижнем Новгороде (Нижегородская область, Россия) (53 км)
Погода в Лысково (Нижегородская область, Россия) (64 км)
Погода в Павлово (Нижегородская область, Россия) (68 км)
Погода в Лукоянове (Нижегородская область, Россия) (90 км)
Погода в Сергаче (Нижегородская область, Россия) (94 км)
Погода в Волжской ГМО (Нижегородская область, Россия) (106 км)
Погода в Семенове (Нижегородская область, Россия) (107 км)
Погода в Большом Болдино (Нижегородская область, Россия) (117 км)

Пояснения к столбцам:

Ветер - указаны скорость ветра в м/с - средняя за 10 мин, порывы в срок и между сроками (в фигурных скобках) и направление, откуда дует ветер: С - северный, СВ - северо-восточный, В - восточный, ЮВ - юго-восточный, Ю - южный, ЮЗ - юго-западный, З - западный, СЗ - северо-западный.
Видимость - горизонтальная дальность видимости в метрах или километрах. При видимости от 1 до 10 км при отсутствии осадков обычно наблюдается дымка, при ухудшении видимости до 1 км и менее - туман. В сухую погоду видимость может ухудшаться дымом, пылью или мглою.
Явления - указаны атмосферные явления, наблюдавшиеся в срок или в последний час перед сроком; фигурными скобками обозначены явления, наблюдавшиеся между сроками (за 1-3 часа до срока); квадратными скобками обозначены град или гололедные отложения с указанием их диаметра в мм.
Облачность - указаны через наклонную черту общая и нижняя облачность в баллах и высота нижней границы облаков в метрах; квадратными скобками обозначены формы облаков: Ci - перистые, Cs - перисто-слоистые, Cc - перисто-кучевые, Ac - высококучевые, As - высокослоистые, Sc - слоисто-кучевые, Ns - слоисто-дождевые, Cu - кучевые, Cb - кучево-дождевые. Подробнее классификацию облаков см. в Атласе облаков (PDF).
T - Температура воздуха - температура, измеренная на высоте 2 м над землей.
Td - Температура точки росы - температура, при понижении до которой содержащийся в воздухе водяной пар достигнет насыщения.
f - Относительная влажность воздуха - влажноcть воздуха, измеренная на высоте 2 м над землей.
Te - Эффективная температура - температура, которую ощущает одетый по сезону человек в тени. Характеристика душности погоды. При расчете учитывается влияние влажности воздуха и скорости ветра на теплоощущения человека.
Tes - Эффективная температура на солнце - температура, которую ощущает человек, с поправкой на солнечный нагрев. Характеристика знойности погоды. Зависит от высоты солнца над горизонтом, облачности и скорости ветра. Ночью, в пасмурную погоду, а также при ветре 12 м/с и более поправка равна нулю.
P - Атмосферное давление - приведенное к уровню моря атмосферное давление.
Po - Атмосферное давление - измеренное на уровне метеостанции атмосферное давление.
Tmin - Минимальная температура - минимум температуры воздуха на высоте 2 м над землей.
Tmax - Максимальная температура - максимум температуры воздуха на высоте 2 м над землей.
R - Количество осадков - Количество выпавших осадков за период времени, мм. При наведении курсора мыши на число - период времени, за который выпало указанное количество осадков.
R24 - Количество осадков - Количество выпавших осадков за 24 часа, мм.
S - Снежный покров - Высота снежного покрова, см. При наведении курсора мыши на число - состояние снежного покрова и степень покрытия местности в баллах.